EUTELSAT 70B

Last updated on Sat Apr 13 2024 01:02:38 GMT+0100 (British Summer Time)

1 39020U 12069A 24103.39140792 -.00000053 00000+0 00000+0 0 9994 2 39020 0.0661 15.5638 0001002 350.3130 46.6525 1.00271922 41529
UTC large
Height (km)
Speed (km/s)
/
Latitude / Longitude
Inclination (degrees)
Orbital Period (minutes)
Azimuth
Elevation
Range (km)
Doppler Factor

Next 0 passes for location: London (51.5072 / 0.1276)

Sorry there are no passes over London.